Time,TemperatureF,DewpointF,PressureIn,WindDirection,WindDirectionDegrees,WindSpeedMPH,WindSpeedGustMPH,Humidity,HourlyPrecipIn,Conditions,Clouds,dailyrainin,SoftwareType,DateUTC
2014-09-18 00:03:00,62.6,59.8,29.89,NE,45,2.9,2.9,90,0.00,,,0.00,WUHU216HW,2014-09-18 05:03:00,
2014-09-18 00:08:00,63.0,60.1,29.89,NE,45,1.1,2.9,90,0.00,,,0.00,WUHU216HW,2014-09-18 05:08:00,
2014-09-18 00:13:00,63.0,60.1,29.89,NE,45,1.1,2.7,90,0.00,,,0.00,WUHU216HW,2014-09-18 05:13:00,
2014-09-18 00:18:00,63.0,60.1,29.89,NE,45,1.3,2.7,90,0.00,,,0.00,WUHU216HW,2014-09-18 05:18:00,
2014-09-18 00:23:00,63.0,60.1,29.89,ENE,68,1.6,3.1,90,0.00,,,0.00,WUHU216HW,2014-09-18 05:23:00,
2014-09-18 00:28:00,62.8,59.9,29.89,NE,45,1.8,3.1,90,0.00,,,0.00,WUHU216HW,2014-09-18 05:28:00,
2014-09-18 00:33:00,62.6,59.8,29.88,ENE,68,1.1,3.1,90,0.00,,,0.00,WUHU216HW,2014-09-18 05:33:00,
2014-09-18 00:38:00,62.3,59.4,29.88,ENE,68,0.0,1.8,90,0.00,,,0.00,WUHU216HW,2014-09-18 05:38:00,
2014-09-18 00:43:00,62.6,59.8,29.88,ENE,68,0.0,0.9,90,0.00,,,0.00,WUHU216HW,2014-09-18 05:43:00,
2014-09-18 00:48:00,62.6,60.0,29.88,ENE,68,1.3,1.3,91,0.00,,,0.00,WUHU216HW,2014-09-18 05:48:00,
2014-09-18 00:53:00,62.8,60.2,29.88,ENE,68,1.1,1.3,91,0.00,,,0.00,WUHU216HW,2014-09-18 05:53:00,
2014-09-18 00:58:00,62.5,59.9,29.88,ENE,68,0.4,1.3,91,0.00,,,0.00,WUHU216HW,2014-09-18 05:58:00,
2014-09-18 01:03:00,62.5,59.9,29.88,NE,45,2.0,2.0,91,0.00,,,0.00,WUHU216HW,2014-09-18 06:03:00,
2014-09-18 01:08:00,62.8,60.2,29.88,NE,45,1.8,2.5,91,0.00,,,0.00,WUHU216HW,2014-09-18 06:08:00,
2014-09-18 01:13:00,63.0,60.4,29.89,NE,45,0.0,2.5,91,0.00,,,0.00,WUHU216HW,2014-09-18 06:13:00,
2014-09-18 01:18:00,62.3,59.7,29.90,SE,135,1.1,1.6,91,0.00,,,0.00,WUHU216HW,2014-09-18 06:18:00,
2014-09-18 01:23:00,62.1,59.5,29.90,SE,135,1.3,1.8,91,0.00,,,0.00,WUHU216HW,2014-09-18 06:23:00,
2014-09-18 01:28:00,62.3,59.7,29.90,ENE,68,0.4,2.0,91,0.00,,,0.00,WUHU216HW,2014-09-18 06:28:00,
2014-09-18 01:33:00,63.0,60.4,29.89,ENE,68,2.5,2.5,91,0.00,,,0.00,WUHU216HW,2014-09-18 06:33:00,
2014-09-18 01:38:00,63.7,61.1,29.90,NE,45,1.1,3.4,91,0.00,,,0.00,WUHU216HW,2014-09-18 06:38:00,
2014-09-18 01:43:00,63.9,61.3,29.90,NE,45,2.5,3.4,91,0.00,,,0.00,WUHU216HW,2014-09-18 06:43:00,
2014-09-18 01:48:00,63.7,61.1,29.89,NE,45,2.0,3.4,91,0.00,,,0.00,WUHU216HW,2014-09-18 06:48:00,
2014-09-18 01:53:00,63.5,60.9,29.89,NE,45,1.8,3.4,91,0.00,,,0.00,WUHU216HW,2014-09-18 06:53:00,
2014-09-18 01:58:00,63.4,60.8,29.88,ENE,68,3.6,3.6,91,0.00,,,0.00,WUHU216HW,2014-09-18 06:58:00,
2014-09-18 02:03:00,63.5,60.9,29.88,NNE,23,3.6,4.0,91,0.00,,,0.00,WUHU216HW,2014-09-18 07:03:00,
2014-09-18 02:08:00,63.7,61.1,29.88,East,90,1.8,4.0,91,0.00,,,0.00,WUHU216HW,2014-09-18 07:08:00,
2014-09-18 02:13:00,63.7,61.1,29.88,East,90,3.8,3.8,91,0.00,,,0.00,WUHU216HW,2014-09-18 07:13:00,
2014-09-18 02:18:00,63.9,61.3,29.89,East,90,2.0,3.8,91,0.00,,,0.00,WUHU216HW,2014-09-18 07:18:00,
2014-09-18 02:23:00,64.1,61.5,29.90,NE,45,2.2,3.1,91,0.00,,,0.00,WUHU216HW,2014-09-18 07:23:00,
2014-09-18 02:28:00,64.3,61.7,29.90,NE,45,3.4,3.4,91,0.00,,,0.00,WUHU216HW,2014-09-18 07:28:00,
2014-09-18 02:33:00,64.3,61.7,29.89,NNE,23,4.3,4.3,91,0.00,,,0.00,WUHU216HW,2014-09-18 07:33:00,
2014-09-18 02:38:00,64.4,62.1,29.88,NE,45,4.0,4.7,92,0.00,,,0.00,WUHU216HW,2014-09-18 07:38:00,
2014-09-18 02:43:00,64.3,61.7,29.88,ENE,68,4.3,4.7,91,0.00,,,0.00,WUHU216HW,2014-09-18 07:43:00,
2014-09-18 02:48:00,64.3,61.7,29.88,ENE,68,4.7,4.7,91,0.00,,,0.00,WUHU216HW,2014-09-18 07:48:00,
2014-09-18 02:53:00,64.4,61.8,29.87,NE,45,4.3,6.0,91,0.00,,,0.00,WUHU216HW,2014-09-18 07:53:00,
2014-09-18 02:58:00,64.4,62.1,29.89,NE,45,1.8,6.0,92,0.01,,,0.01,WUHU216HW,2014-09-18 07:58:00,
2014-09-18 03:03:00,64.3,61.7,29.90,SE,135,1.1,4.0,91,0.01,,,0.01,WUHU216HW,2014-09-18 08:03:00,
2014-09-18 03:08:00,64.3,61.7,29.90,ESE,113,0.9,3.4,91,0.01,,,0.01,WUHU216HW,2014-09-18 08:08:00,
2014-09-18 03:13:00,64.3,61.7,29.91,ESE,113,0.4,3.4,91,0.01,,,0.01,WUHU216HW,2014-09-18 08:13:00,
2014-09-18 03:18:00,64.4,61.8,29.91,ENE,68,1.1,3.4,91,0.01,,,0.01,WUHU216HW,2014-09-18 08:18:00,
2014-09-18 03:23:00,64.4,61.8,29.92,SSE,158,2.9,4.9,91,0.01,,,0.01,WUHU216HW,2014-09-18 08:23:00,
2014-09-18 03:28:00,64.4,61.8,29.91,East,90,2.9,5.8,91,0.01,,,0.01,WUHU216HW,2014-09-18 08:28:00,
2014-09-18 03:33:00,64.4,61.8,29.91,SSE,158,2.9,5.8,91,0.01,,,0.01,WUHU216HW,2014-09-18 08:33:00,
2014-09-18 03:38:00,64.3,61.7,29.91,ESE,113,5.4,5.4,91,0.01,,,0.01,WUHU216HW,2014-09-18 08:38:00,
2014-09-18 03:43:00,64.3,61.7,29.90,SE,135,1.8,7.2,91,0.01,,,0.01,WUHU216HW,2014-09-18 08:43:00,
2014-09-18 03:48:00,64.3,61.7,29.90,East,90,7.6,7.6,91,0.01,,,0.01,WUHU216HW,2014-09-18 08:48:00,
2014-09-18 03:53:00,64.3,61.9,29.90,East,90,6.9,9.2,92,0.00,,,0.01,WUHU216HW,2014-09-18 08:53:00,
2014-09-18 03:58:00,64.3,61.9,29.90,East,90,4.0,9.2,92,0.00,,,0.01,WUHU216HW,2014-09-18 08:58:00,
2014-09-18 04:03:00,64.3,61.9,29.90,ENE,68,6.3,8.7,92,0.00,,,0.01,WUHU216HW,2014-09-18 09:03:00,
2014-09-18 04:08:00,64.4,62.1,29.90,East,90,5.6,8.3,92,0.00,,,0.01,WUHU216HW,2014-09-18 09:08:00,
2014-09-18 04:13:00,64.4,62.1,29.90,East,90,4.0,8.5,92,0.00,,,0.01,WUHU216HW,2014-09-18 09:13:00,
2014-09-18 04:18:00,64.4,62.1,29.90,East,90,8.3,8.5,92,0.00,,,0.01,WUHU216HW,2014-09-18 09:18:00,
2014-09-18 04:23:00,64.6,62.3,29.90,East,90,6.3,8.3,92,0.00,,,0.01,WUHU216HW,2014-09-18 09:23:00,
2014-09-18 04:28:00,64.6,62.3,29.90,ENE,68,4.7,8.3,92,0.00,,,0.01,WUHU216HW,2014-09-18 09:28:00,
2014-09-18 04:33:00,64.6,62.3,29.90,ENE,68,4.5,8.3,92,0.00,,,0.01,WUHU216HW,2014-09-18 09:33:00,
2014-09-18 04:38:00,64.8,62.5,29.90,East,90,5.4,5.6,92,0.00,,,0.01,WUHU216HW,2014-09-18 09:38:00,
2014-09-18 04:43:00,64.8,62.5,29.90,ENE,68,2.9,8.7,92,0.00,,,0.01,WUHU216HW,2014-09-18 09:43:00,
2014-09-18 04:48:00,64.8,62.5,29.90,East,90,6.5,8.7,92,0.00,,,0.01,WUHU216HW,2014-09-18 09:48:00,
2014-09-18 04:53:00,64.8,62.5,29.91,ENE,68,6.5,7.6,92,0.00,,,0.01,WUHU216HW,2014-09-18 09:53:00,
2014-09-18 04:58:00,64.8,62.5,29.91,ENE,68,3.4,7.6,92,0.00,,,0.01,WUHU216HW,2014-09-18 09:58:00,
2014-09-18 05:03:00,64.8,62.5,29.91,East,90,3.1,5.6,92,0.00,,,0.01,WUHU216HW,2014-09-18 10:03:00,
2014-09-18 05:08:00,64.8,62.5,29.90,ENE,68,6.0,6.9,92,0.00,,,0.01,WUHU216HW,2014-09-18 10:08:00,
2014-09-18 05:13:00,64.8,62.5,29.90,East,90,4.5,6.9,92,0.00,,,0.01,WUHU216HW,2014-09-18 10:13:00,
2014-09-18 05:18:00,64.8,62.5,29.90,ENE,68,5.4,6.9,92,0.00,,,0.01,WUHU216HW,2014-09-18 10:18:00,
2014-09-18 05:23:00,64.8,62.5,29.90,East,90,6.5,6.5,92,0.00,,,0.01,WUHU216HW,2014-09-18 10:23:00,
2014-09-18 05:25:00,64.8,62.5,29.91,ENE,68,8.1,8.1,92,0.00,,,0.01,WUHU216HW,2014-09-18 10:25:00,
2014-09-18 05:30:00,64.8,62.5,29.91,ESE,113,3.8,8.1,92,0.00,,,0.01,WUHU216HW,2014-09-18 10:30:00,
2014-09-18 05:35:00,64.8,62.5,29.91,East,90,4.5,7.6,92,0.00,,,0.01,WUHU216HW,2014-09-18 10:35:00,
2014-09-18 05:40:00,64.8,62.5,29.91,ESE,113,2.9,5.1,92,0.00,,,0.01,WUHU216HW,2014-09-18 10:40:00,
2014-09-18 05:45:00,64.8,62.5,29.92,SE,135,2.9,5.6,92,0.00,,,0.01,WUHU216HW,2014-09-18 10:45:00,